User: anonymous   Login
Location: Unspecified
(0.0000°N, 0.0000°E)
Time: 02:40:01
(UTC+00:00)
Language:

USA 281 - Orbit

View from above orbital plane
View from above orbital plane
View from above satellite
View from above satellite

Ground track
Ground track

The orbit data is extracted from the following two-line orbital elements,

1 43145U 18005A   23078.17923094 0.00000000  00000-0  00000-0 0    09
2 43145 106.0204 260.4918 0000884 203.6540 156.3459 13.48032186    01
Epoch (UTC): 19 March 2023 04:18:05
Eccentricity: 0.0000884
inclination: 106.0204°
perigee height: 1079 km
apogee height: 1080 km
right ascension of ascending node: 260.4918°
argument of perigee: 203.6540°
revolutions per day: 13.48032186
mean anomaly at epoch: 156.3459°
orbit number at epoch: 0

The dashed part of the orbit path shows where the satellite is in the earth's shadow,  

DLR